| time (UTC) | temp F | wind direction | speed MPH | gust MPH | rain 1hr in | rain 24hr in | rain mn in | humidity % | barometer mb |
| 20260903100741 | 83 | 152 | 7.0 | 10.0 | 0.00 | 0.00 | 0.00 | 82 | 1013.6 |
| 20260903100236 | 83 | 176 | 6.0 | 11.0 | 0.00 | 0.00 | 0.00 | 82 | 1013.6 |
| 20260903095733 | 83 | 157 | 9.0 | 10.0 | 0.00 | 0.00 | 0.00 | 82 | 1013.7 |
| 20260903095228 | 83 | 194 | 4.0 | 7.0 | 0.00 | 0.00 | 0.00 | 82 | 1013.8 |
| 20260903094723 | 83 | 180 | 8.0 | 9.0 | 0.00 | 0.00 | 0.00 | 82 | 1013.7 |
| 20260903094218 | 83 | 162 | 4.0 | 11.0 | 0.00 | 0.00 | 0.00 | 82 | 1014.0 |
| 20260903093713 | 83 | 185 | 6.0 | 8.0 | 0.00 | 0.00 | 0.00 | 81 | 1014.0 |
| 20260903093208 | 83 | 194 | 4.0 | 6.0 | 0.00 | 0.00 | 0.00 | 81 | 1014.0 |
| 20260903092703 | 84 | 180 | 5.0 | 9.0 | 0.00 | 0.00 | 0.00 | 81 | 1014.1 |
| 20260903092157 | 84 | 193 | 4.0 | 9.0 | 0.00 | 0.00 | 0.00 | 81 | 1014.1 |
| 20260903091656 | 84 | 174 | 4.0 | 9.0 | 0.00 | 0.00 | 0.00 | 81 | 1014.1 |
| 20260903091150 | 84 | 146 | 11.0 | 12.0 | 0.00 | 0.00 | 0.00 | 81 | 1014.0 |
| 20260903090646 | 84 | 181 | 5.0 | 10.0 | 0.00 | 0.00 | 0.00 | 81 | 1014.1 |
| 20260903090144 | 84 | 178 | 5.0 | 10.0 | 0.00 | 0.00 | 0.00 | 80 | 1014.0 |
| 20260903085643 | 84 | 174 | 7.0 | 11.0 | 0.00 | 0.00 | 0.00 | 80 | 1014.0 |
| 20260903085139 | 84 | 196 | 3.0 | 9.0 | 0.00 | 0.00 | 0.00 | 80 | 1014.0 |
| 20260903084636 | 84 | 176 | 7.0 | 12.0 | 0.00 | 0.00 | 0.00 | 80 | 1014.0 |
| 20260903084132 | 84 | 180 | 4.0 | 9.0 | 0.00 | 0.00 | 0.00 | 80 | 1014.2 |
| 20260903083628 | 84 | 184 | 8.0 | 9.0 | 0.00 | 0.00 | 0.00 | 80 | 1014.2 |
| 20260903083127 | 84 | 169 | 6.0 | 10.0 | 0.00 | 0.00 | 0.00 | 80 | 1014.3 |
| 20260903082622 | 84 | 185 | 5.0 | 10.0 | 0.00 | 0.00 | 0.00 | 79 | 1014.1 |
| 20260903082118 | 84 | 178 | 5.0 | 11.0 | 0.00 | 0.00 | 0.00 | 79 | 1014.0 |
| 20260903081612 | 84 | 179 | 6.0 | 10.0 | 0.00 | 0.00 | 0.00 | 79 | 1014.2 |
| 20260903081108 | 84 | 188 | 3.0 | 11.0 | 0.00 | 0.00 | 0.00 | 79 | 1014.2 |
| 20260903080604 | 84 | 142 | 8.0 | 17.0 | 0.00 | 0.00 | 0.00 | 79 | 1014.4 |
| 20260903075555 | 84 | 151 | 4.0 | 11.0 | 0.00 | 0.00 | 0.00 | 79 | 1014.4 |
| 20260903075050 | 84 | 152 | 5.0 | 13.0 | 0.00 | 0.00 | 0.00 | 78 | 1014.3 |
| 20260903074549 | 85 | 163 | 4.0 | 8.0 | 0.00 | 0.00 | 0.00 | 78 | 1014.2 |
| 20260903074044 | 85 | 155 | 6.0 | 9.0 | 0.00 | 0.00 | 0.00 | 77 | 1014.4 |
| 20260903073540 | 85 | 180 | 8.0 | 13.0 | 0.00 | 0.00 | 0.00 | 77 | 1014.3 |
| 20260903073036 | 85 | 151 | 8.0 | 12.0 | 0.00 | 0.00 | 0.00 | 77 | 1014.6 |
| 20260903072531 | 85 | 136 | 11.0 | 13.0 | 0.00 | 0.00 | 0.00 | 77 | 1014.5 |
| 20260903072028 | 85 | 170 | 7.0 | 12.0 | 0.00 | 0.00 | 0.00 | 77 | 1014.3 |
| 20260903071524 | 85 | 180 | 9.0 | 10.0 | 0.00 | 0.00 | 0.00 | 77 | 1014.3 |
| 20260903071019 | 85 | 177 | 8.0 | 13.0 | 0.00 | 0.00 | 0.00 | 78 | 1014.2 |
| 20260903070519 | 85 | 180 | 6.0 | 11.0 | 0.00 | 0.00 | 0.00 | 78 | 1014.3 |
| 20260903070015 | 85 | 173 | 8.0 | 13.0 | 0.00 | 0.00 | 0.00 | 79 | 1014.4 |
| 20260903065508 | 85 | 184 | 4.0 | 12.0 | 0.00 | 0.00 | 0.00 | 79 | 1014.3 |
| 20260903065007 | 85 | 164 | 9.0 | 12.0 | 0.00 | 0.00 | 0.00 | 79 | 1014.4 |
| 20260903064502 | 85 | 162 | 5.0 | 14.0 | 0.00 | 0.00 | 0.00 | 79 | 1014.3 |
| 20260903063958 | 85 | 150 | 11.0 | 12.0 | 0.00 | 0.00 | 0.00 | 79 | 1014.2 |
| 20260903063453 | 85 | 163 | 8.0 | 10.0 | 0.00 | 0.00 | 0.00 | 79 | 1014.3 |
| 20260903062949 | 85 | 159 | 12.0 | 15.0 | 0.00 | 0.00 | 0.00 | 79 | 1014.4 |
| 20260903062448 | 85 | 167 | 6.0 | 14.0 | 0.00 | 0.00 | 0.00 | 79 | 1014.4 |
| 20260903061943 | 85 | 151 | 7.0 | 13.0 | 0.00 | 0.00 | 0.00 | 79 | 1014.4 |
| 20260903061438 | 85 | 166 | 4.0 | 17.0 | 0.00 | 0.00 | 0.00 | 79 | 1014.4 |
| 20260903060934 | 85 | 166 | 6.0 | 13.0 | 0.00 | 0.00 | 0.00 | 78 | 1014.3 |
| 20260903060433 | 85 | 160 | 8.0 | 13.0 | 0.00 | 0.00 | 0.00 | 78 | 1014.4 |
| 20260903055933 | 85 | 160 | 11.0 | 12.0 | 0.00 | 0.00 | 0.00 | 78 | 1014.6 |
| 20260903055431 | 85 | 153 | 7.0 | 16.0 | 0.00 | 0.00 | 0.00 | 78 | 1014.5 |
| 20260903054930 | 85 | 178 | 6.0 | 15.0 | 0.00 | 0.00 | 0.00 | 77 | 1014.5 |
| 20260903054426 | 85 | 187 | 12.0 | 15.0 | 0.00 | 0.00 | 0.00 | 77 | 1014.7 |
| 20260903053921 | 85 | 153 | 7.0 | 12.0 | 0.00 | 0.00 | 0.00 | 77 | 1014.6 |
| 20260903053421 | 86 | 150 | 11.0 | 12.0 | 0.00 | 0.00 | 0.00 | 77 | 1014.6 |
| 20260903052918 | 86 | 163 | 9.0 | 13.0 | 0.00 | 0.00 | 0.00 | 77 | 1014.6 |
| 20260903052413 | 86 | 165 | 7.0 | 19.0 | 0.00 | 0.00 | 0.00 | 77 | 1014.8 |
| 20260903051908 | 86 | 170 | 6.0 | 13.0 | 0.00 | 0.00 | 0.00 | 77 | 1014.7 |
| 20260903051404 | 86 | 144 | 11.0 | 15.0 | 0.00 | 0.00 | 0.00 | 77 | 1014.9 |
| 20260903050859 | 86 | 154 | 11.0 | 13.0 | 0.00 | 0.00 | 0.00 | 77 | 1015.0 |
| 20260903050358 | 86 | 150 | 8.0 | 10.0 | 0.00 | 0.00 | 0.00 | 77 | 1014.7 |
| 20260903045853 | 86 | 157 | 6.0 | 14.0 | 0.00 | 0.00 | 0.00 | 77 | 1014.7 |
| 20260903045349 | 86 | 135 | 11.0 | 14.0 | 0.00 | 0.00 | 0.00 | 76 | 1014.7 |
| 20260903044846 | 86 | 164 | 6.0 | 16.0 | 0.00 | 0.00 | 0.00 | 76 | 1014.8 |
| 20260903044345 | 86 | 161 | 5.0 | 9.0 | 0.00 | 0.00 | 0.00 | 76 | 1014.9 |
| 20260903043842 | 86 | 169 | 6.0 | 12.0 | 0.00 | 0.00 | 0.00 | 76 | 1014.9 |
| 20260903043337 | 86 | 167 | 6.0 | 15.0 | 0.00 | 0.00 | 0.00 | 75 | 1015.0 |
| 20260903042836 | 86 | 163 | 7.0 | 15.0 | 0.00 | 0.00 | 0.00 | 76 | 1015.0 |
| 20260903042332 | 86 | 179 | 10.0 | 16.0 | 0.00 | 0.00 | 0.00 | 76 | 1014.9 |
| 20260903041827 | 86 | 199 | 4.0 | 11.0 | 0.00 | 0.00 | 0.00 | 76 | 1014.8 |
| 20260903041324 | 86 | 182 | 6.0 | 8.0 | 0.00 | 0.00 | 0.00 | 76 | 1015.0 |
| 20260903040819 | 86 | 168 | 8.0 | 13.0 | 0.00 | 0.00 | 0.00 | 76 | 1014.9 |
| 20260903040318 | 86 | 143 | 12.0 | 16.0 | 0.00 | 0.00 | 0.00 | 76 | 1014.7 |
| 20260903035814 | 86 | 178 | 7.0 | 12.0 | 0.00 | 0.00 | 0.00 | 76 | 1014.7 |
| 20260903035309 | 86 | 159 | 4.0 | 9.0 | 0.00 | 0.00 | 0.00 | 77 | 1014.9 |
| 20260903034805 | 86 | 139 | 12.0 | 16.0 | 0.00 | 0.00 | 0.00 | 77 | 1014.9 |
| 20260903034300 | 86 | 125 | 7.0 | 12.0 | 0.00 | 0.00 | 0.00 | 77 | 1014.8 |
| 20260903033754 | 86 | 156 | 7.0 | 12.0 | 0.00 | 0.00 | 0.00 | 76 | 1014.8 |
| 20260903033244 | 86 | 162 | 8.0 | 13.0 | 0.00 | 0.00 | 0.00 | 76 | 1014.4 |
| 20260903032738 | 87 | 179 | 6.0 | 10.0 | 0.00 | 0.00 | 0.00 | 76 | 1014.6 |
| 20260903032234 | 87 | 124 | 9.0 | 13.0 | 0.00 | 0.00 | 0.00 | 75 | 1014.6 |
| 20260903031730 | 87 | 154 | 8.0 | 14.0 | 0.00 | 0.00 | 0.00 | 75 | 1014.4 |
| 20260903031228 | 87 | 155 | 6.0 | 14.0 | 0.00 | 0.00 | 0.00 | 75 | 1014.6 |
| 20260903030720 | 87 | 131 | 13.0 | 18.0 | 0.00 | 0.00 | 0.00 | 75 | 1014.3 |
| 20260903030215 | 87 | 135 | 13.0 | 15.0 | 0.00 | 0.00 | 0.00 | 74 | 1014.1 |
| 20260903025710 | 87 | 129 | 7.0 | 18.0 | 0.00 | 0.00 | 0.00 | 74 | 1014.1 |
| 20260903025206 | 87 | 145 | 8.0 | 11.0 | 0.00 | 0.00 | 0.00 | 74 | 1014.2 |
| 20260903024705 | 87 | 140 | 11.0 | 17.0 | 0.00 | 0.00 | 0.00 | 73 | 1013.9 |
| 20260903024204 | 87 | 151 | 6.0 | 14.0 | 0.00 | 0.00 | 0.00 | 73 | 1013.9 |
| 20260903023700 | 87 | 141 | 6.0 | 16.0 | 0.00 | 0.00 | 0.00 | 73 | 1013.8 |
| 20260903023155 | 88 | 134 | 12.0 | 17.0 | 0.00 | 0.00 | 0.00 | 72 | 1013.8 |
| 20260903022650 | 88 | 150 | 9.0 | 11.0 | 0.00 | 0.00 | 0.00 | 72 | 1013.6 |
| 20260903022149 | 88 | 137 | 11.0 | 17.0 | 0.00 | 0.00 | 0.00 | 71 | 1013.4 |
| 20260903021644 | 88 | 153 | 8.0 | 15.0 | 0.00 | 0.00 | 0.00 | 71 | 1013.5 |
| 20260903021144 | 88 | 137 | 11.0 | 16.0 | 0.00 | 0.00 | 0.00 | 70 | 1013.1 |
| 20260903020639 | 89 | 156 | 7.0 | 16.0 | 0.00 | 0.00 | 0.00 | 69 | 1013.1 |
| 20260903020133 | 89 | 161 | 9.0 | 17.0 | 0.00 | 0.00 | 0.00 | 68 | 1013.0 |
| 20260903015630 | 89 | 138 | 8.0 | 22.0 | 0.00 | 0.00 | 0.00 | 68 | 1013.0 |
| 20260903015125 | 90 | 170 | 5.0 | 18.0 | 0.00 | 0.00 | 0.00 | 66 | 1012.7 |
| 20260903014624 | 90 | 162 | 8.0 | 19.0 | 0.00 | 0.00 | 0.00 | 65 | 1012.9 |
| 20260903014124 | 90 | 142 | 10.0 | 15.0 | 0.00 | 0.00 | 0.00 | 64 | 1012.7 |
| 20260903013619 | 91 | 152 | 14.0 | 20.0 | 0.00 | 0.00 | 0.00 | 63 | 1012.6 |
| 20260903013114 | 91 | 137 | 10.0 | 17.0 | 0.00 | 0.00 | 0.00 | 61 | 1012.5 |
| 20260903012613 | 91 | 145 | 13.0 | 19.0 | 0.00 | 0.00 | 0.00 | 61 | 1012.4 |
| 20260903012112 | 91 | 156 | 9.0 | 16.0 | 0.00 | 0.00 | 0.00 | 60 | 1012.2 |
| 20260903011612 | 92 | 160 | 11.0 | 14.0 | 0.00 | 0.00 | 0.00 | 59 | 1012.3 |
| 20260903011112 | 92 | 151 | 6.0 | 12.0 | 0.00 | 0.00 | 0.00 | 58 | 1012.4 |
| 20260903010607 | 93 | 145 | 5.0 | 13.0 | 0.00 | 0.00 | 0.00 | 56 | 1012.1 |
| 20260903010105 | 93 | 137 | 10.0 | 12.0 | 0.00 | 0.00 | 0.00 | 54 | 1012.1 |
| 20260903005600 | 93 | 149 | 6.0 | 13.0 | 0.00 | 0.00 | 0.00 | 52 | 1012.1 |
| 20260903005056 | 94 | 149 | 9.0 | 15.0 | 0.00 | 0.00 | 0.00 | 51 | 1012.0 |
| 20260903004556 | 94 | 133 | 11.0 | 16.0 | 0.00 | 0.00 | 0.00 | 50 | 1012.1 |
| 20260903004051 | 94 | 151 | 5.0 | 12.0 | 0.00 | 0.00 | 0.00 | 49 | 1012.0 |
| 20260903003546 | 95 | 157 | 9.0 | 19.0 | 0.00 | 0.00 | 0.00 | 48 | 1012.0 |
| 20260903003041 | 95 | 160 | 8.0 | 13.0 | 0.00 | 0.00 | 0.00 | 47 | 1011.9 |
| 20260903002536 | 95 | 172 | 6.0 | 13.0 | 0.00 | 0.00 | 0.00 | 46 | 1011.9 |
| 20260903002031 | 95 | 136 | 7.0 | 17.0 | 0.00 | 0.00 | 0.00 | 45 | 1011.9 |
| 20260903001526 | 96 | 133 | 8.0 | 13.0 | 0.00 | 0.00 | 0.00 | 46 | 1011.8 |
| 20260903001025 | 96 | 138 | 8.0 | 18.0 | 0.00 | 0.00 | 0.00 | 46 | 1012.0 |
| 20260903000521 | 96 | 119 | 11.0 | 19.0 | 0.00 | 0.00 | 0.00 | 46 | 1011.8 |
| 20260903000020 | 96 | 140 | 15.0 | 16.0 | 0.00 | 0.00 | 0.00 | 47 | 1011.7 |
| 20260902235514 | 96 | 138 | 11.0 | 16.0 | 0.00 | 0.00 | 0.00 | 47 | 1011.5 |
| 20260902235009 | 97 | 144 | 11.0 | 13.0 | 0.00 | 0.00 | 0.00 | 46 | 1011.4 |
| 20260902234503 | 97 | 139 | 11.0 | 15.0 | 0.00 | 0.00 | 0.00 | 46 | 1011.4 |
| 20260902234002 | 97 | 154 | 9.0 | 17.0 | 0.00 | 0.00 | 0.00 | 46 | 1011.6 |
| 20260902233456 | 98 | 144 | 9.0 | 16.0 | 0.00 | 0.00 | 0.00 | 45 | 1011.5 |
| 20260902232950 | 98 | 150 | 8.0 | 18.0 | 0.00 | 0.00 | 0.00 | 44 | 1011.5 |
| 20260902232445 | 98 | 132 | 10.0 | 15.0 | 0.00 | 0.00 | 0.00 | 44 | 1011.5 |
| 20260902231944 | 99 | 135 | 9.0 | 15.0 | 0.00 | 0.00 | 0.00 | 42 | 1011.5 |
| 20260902231439 | 99 | 147 | 9.0 | 13.0 | 0.00 | 0.00 | 0.00 | 41 | 1011.6 |
| 20260902230934 | 99 | 157 | 6.0 | 13.0 | 0.00 | 0.00 | 0.00 | 41 | 1011.5 |
| 20260902230433 | 100 | 137 | 16.0 | 18.0 | 0.00 | 0.00 | 0.00 | 39 | 1011.5 |
| 20260902225927 | 100 | 153 | 9.0 | 11.0 | 0.00 | 0.00 | 0.00 | 36 | 1011.5 |
| 20260902225417 | 100 | 146 | 8.0 | 17.0 | 0.00 | 0.00 | 0.00 | 36 | 1011.5 |
| 20260902224915 | 100 | 155 | 11.0 | 12.0 | 0.00 | 0.00 | 0.00 | 35 | 1011.6 |
| 20260902224415 | 100 | 184 | 4.0 | 15.0 | 0.00 | 0.00 | 0.00 | 35 | 1011.5 |
| 20260902223913 | 100 | 164 | 7.0 | 15.0 | 0.00 | 0.00 | 0.00 | 35 | 1011.6 |
| 20260902223412 | 100 | 190 | 4.0 | 12.0 | 0.00 | 0.00 | 0.00 | 35 | 1011.6 |
| 20260902222907 | 100 | 168 | 4.0 | 11.0 | 0.00 | 0.00 | 0.00 | 36 | 1011.5 |
| 20260902222405 | 100 | 132 | 13.0 | 17.0 | 0.00 | 0.00 | 0.00 | 36 | 1011.6 |
| 20260902221905 | 101 | 172 | 7.0 | 14.0 | 0.00 | 0.00 | 0.00 | 35 | 1011.5 |
| 20260902221404 | 101 | 132 | 12.0 | 14.0 | 0.00 | 0.00 | 0.00 | 36 | 1011.5 |
| 20260902220900 | 101 | 133 | 10.0 | 14.0 | 0.00 | 0.00 | 0.00 | 36 | 1011.4 |
| 20260902220400 | 101 | 145 | 6.0 | 16.0 | 0.00 | 0.00 | 0.00 | 36 | 1011.5 |
| 20260902215855 | 101 | 147 | 4.0 | 13.0 | 0.00 | 0.00 | 0.00 | 37 | 1011.6 |
| 20260902215350 | 101 | 155 | 7.0 | 12.0 | 0.00 | 0.00 | 0.00 | 37 | 1011.6 |
| 20260902214846 | 101 | 134 | 12.0 | 12.0 | 0.00 | 0.00 | 0.00 | 38 | 1011.6 |
| 20260902214345 | 101 | 132 | 6.0 | 15.0 | 0.00 | 0.00 | 0.00 | 37 | 1011.5 |
| 20260902213839 | 102 | 134 | 10.0 | 13.0 | 0.00 | 0.00 | 0.00 | 37 | 1011.7 |
| 20260902213335 | 101 | 155 | 5.0 | 18.0 | 0.00 | 0.00 | 0.00 | 37 | 1011.7 |
| 20260902212833 | 102 | 137 | 13.0 | 15.0 | 0.00 | 0.00 | 0.00 | 37 | 1011.8 |
| 20260902212331 | 101 | 178 | 5.0 | 11.0 | 0.00 | 0.00 | 0.00 | 38 | 1011.7 |
| 20260902211827 | 102 | 167 | 8.0 | 15.0 | 0.00 | 0.00 | 0.00 | 38 | 1011.8 |
| 20260902211323 | 102 | 135 | 11.0 | 14.0 | 0.00 | 0.00 | 0.00 | 39 | 1011.8 |
| 20260902210818 | 101 | 141 | 6.0 | 11.0 | 0.00 | 0.00 | 0.00 | 39 | 1012.0 |
| 20260902210317 | 102 | 129 | 9.0 | 13.0 | 0.00 | 0.00 | 0.00 | 39 | 1011.8 |
| 20260902205815 | 101 | 140 | 5.0 | 10.0 | 0.00 | 0.00 | 0.00 | 40 | 1011.9 |
| 20260902205310 | 102 | 136 | 9.0 | 12.0 | 0.00 | 0.00 | 0.00 | 39 | 1012.0 |
| 20260902204806 | 101 | 163 | 4.0 | 11.0 | 0.00 | 0.00 | 0.00 | 40 | 1012.1 |
| 20260902204301 | 101 | 145 | 9.0 | 12.0 | 0.00 | 0.00 | 0.00 | 41 | 1012.2 |
| 20260902203756 | 102 | 151 | 5.0 | 11.0 | 0.00 | 0.00 | 0.00 | 39 | 1012.2 |
| 20260902203251 | 102 | 154 | 5.0 | 8.0 | 0.00 | 0.00 | 0.00 | 38 | 1012.5 |
| 20260902202746 | 102 | 131 | 8.0 | 15.0 | 0.00 | 0.00 | 0.00 | 38 | 1012.5 |
| 20260902202242 | 103 | 166 | 7.0 | 9.0 | 0.00 | 0.00 | 0.00 | 38 | 1012.5 |
| 20260902201739 | 102 | 227 | 9.0 | 12.0 | 0.00 | 0.00 | 0.00 | 39 | 1012.7 |
| 20260902201237 | 102 | 153 | 3.0 | 9.0 | 0.00 | 0.00 | 0.00 | 39 | 1012.7 |
| 20260902200733 | 102 | 208 | 2.0 | 8.0 | 0.00 | 0.00 | 0.00 | 38 | 1012.7 |
| 20260902200228 | 103 | 225 | 9.0 | 10.0 | 0.00 | 0.00 | 0.00 | 36 | 1012.8 |
| 20260902195724 | 102 | 214 | 7.0 | 9.0 | 0.00 | 0.00 | 0.00 | 37 | 1013.0 |
| 20260902195222 | 101 | 171 | 3.0 | 11.0 | 0.00 | 0.00 | 0.00 | 38 | 1013.0 |
| 20260902194716 | 101 | 173 | 8.0 | 11.0 | 0.00 | 0.00 | 0.00 | 40 | 1013.0 |
| 20260902194211 | 100 | 194 | 4.0 | 5.0 | 0.00 | 0.00 | 0.00 | 41 | 1013.3 |
| 20260902193708 | 101 | 155 | 4.0 | 11.0 | 0.00 | 0.00 | 0.00 | 40 | 1013.3 |
| 20260902193203 | 101 | 156 | 5.0 | 14.0 | 0.00 | 0.00 | 0.00 | 39 | 1013.2 |
| 20260902192701 | 102 | 132 | 5.0 | 7.0 | 0.00 | 0.00 | 0.00 | 39 | 1013.4 |
| 20260902192200 | 100 | 228 | 5.0 | 9.0 | 0.00 | 0.00 | 0.00 | 42 | 1013.6 |
| 20260902191655 | 100 | 159 | 6.0 | 13.0 | 0.00 | 0.00 | 0.00 | 40 | 1013.7 |
| 20260902191155 | 101 | 257 | 4.0 | 6.0 | 0.00 | 0.00 | 0.00 | 40 | 1013.8 |
| 20260902190650 | 100 | 189 | 4.0 | 8.0 | 0.00 | 0.00 | 0.00 | 41 | 1013.9 |
| 20260902190145 | 100 | 248 | 3.0 | 12.0 | 0.00 | 0.00 | 0.00 | 43 | 1014.0 |
| 20260902185636 | 98 | 158 | 6.0 | 10.0 | 0.00 | 0.00 | 0.00 | 43 | 1014.1 |
| 20260902185131 | 99 | 188 | 5.0 | 10.0 | 0.00 | 0.00 | 0.00 | 44 | 1014.3 |
| 20260902184626 | 99 | 157 | 9.0 | 11.0 | 0.00 | 0.00 | 0.00 | 43 | 1014.1 |
| 20260902184122 | 99 | 162 | 4.0 | 8.0 | 0.00 | 0.00 | 0.00 | 43 | 1014.3 |
| 20260902183618 | 99 | 149 | 7.0 | 7.0 | 0.00 | 0.00 | 0.00 | 43 | 1014.3 |
| 20260902183114 | 99 | 211 | 5.0 | 9.0 | 0.00 | 0.00 | 0.00 | 43 | 1014.6 |
| 20260902182610 | 98 | 182 | 6.0 | 13.0 | 0.00 | 0.00 | 0.00 | 45 | 1014.6 |
| 20260902182106 | 98 | 161 | 6.0 | 9.0 | 0.00 | 0.00 | 0.00 | 47 | 1014.5 |
| 20260902181602 | 98 | 142 | 9.0 | 15.0 | 0.00 | 0.00 | 0.00 | 46 | 1014.6 |
| 20260902181056 | 98 | 215 | 4.0 | 10.0 | 0.00 | 0.00 | 0.00 | 47 | 1014.8 |
| 20260902180555 | 98 | 214 | 2.0 | 12.0 | 0.00 | 0.00 | 0.00 | 47 | 1014.8 |
| 20260902180052 | 97 | 161 | 4.0 | 9.0 | 0.00 | 0.00 | 0.00 | 46 | 1015.1 |
| 20260902175551 | 97 | 188 | 4.0 | 12.0 | 0.00 | 0.00 | 0.00 | 46 | 1015.2 |
| 20260902175047 | 97 | 136 | 6.0 | 8.0 | 0.00 | 0.00 | 0.00 | 49 | 1015.2 |
| 20260902174543 | 97 | 151 | 7.0 | 11.0 | 0.00 | 0.00 | 0.00 | 48 | 1015.3 |
| 20260902174038 | 97 | 195 | 6.0 | 9.0 | 0.00 | 0.00 | 0.00 | 49 | 1015.3 |
| 20260902173538 | 97 | 192 | 4.0 | 10.0 | 0.00 | 0.00 | 0.00 | 49 | 1015.4 |
| 20260902173033 | 97 | 231 | 3.0 | 7.0 | 0.00 | 0.00 | 0.00 | 50 | 1015.5 |
| 20260902172532 | 96 | 206 | 4.0 | 12.0 | 0.00 | 0.00 | 0.00 | 52 | 1015.6 |
| 20260902172028 | 95 | 178 | 4.0 | 8.0 | 0.00 | 0.00 | 0.00 | 53 | 1015.6 |
| 20260902171523 | 95 | 176 | 5.0 | 12.0 | 0.00 | 0.00 | 0.00 | 52 | 1015.6 |
| 20260902171019 | 96 | 141 | 9.0 | 11.0 | 0.00 | 0.00 | 0.00 | 52 | 1015.8 |
| 20260902170514 | 95 | 178 | 7.0 | 15.0 | 0.00 | 0.00 | 0.00 | 54 | 1015.9 |
| 20260902170010 | 95 | 179 | 6.0 | 9.0 | 0.00 | 0.00 | 0.00 | 54 | 1016.0 |
| 20260902165503 | 96 | 194 | 7.0 | 10.0 | 0.00 | 0.00 | 0.00 | 52 | 1016.0 |
| 20260902164958 | 95 | 152 | 7.0 | 10.0 | 0.00 | 0.00 | 0.00 | 55 | 1015.9 |
| 20260902164453 | 95 | 160 | 6.0 | 12.0 | 0.00 | 0.00 | 0.00 | 55 | 1015.9 |
| 20260902163951 | 94 | 198 | 6.0 | 11.0 | 0.00 | 0.00 | 0.00 | 56 | 1016.1 |
| 20260902163447 | 94 | 181 | 6.0 | 13.0 | 0.00 | 0.00 | 0.00 | 56 | 1016.1 |
| 20260902162944 | 94 | 204 | 7.0 | 7.0 | 0.00 | 0.00 | 0.00 | 58 | 1016.1 |
| 20260902162440 | 94 | 183 | 7.0 | 10.0 | 0.00 | 0.00 | 0.00 | 58 | 1016.3 |
| 20260902161935 | 93 | 184 | 5.0 | 9.0 | 0.00 | 0.00 | 0.00 | 58 | 1016.2 |
| 20260902161430 | 93 | 191 | 7.0 | 13.0 | 0.00 | 0.00 | 0.00 | 58 | 1016.2 |
| 20260902160926 | 93 | 180 | 7.0 | 8.0 | 0.00 | 0.00 | 0.00 | 60 | 1016.4 |
| 20260902160421 | 92 | 191 | 5.0 | 11.0 | 0.00 | 0.00 | 0.00 | 59 | 1016.3 |
| 20260902155919 | 92 | 189 | 4.0 | 9.0 | 0.00 | 0.00 | 0.00 | 62 | 1016.2 |
| 20260902155414 | 91 | 173 | 8.0 | 11.0 | 0.00 | 0.00 | 0.00 | 63 | 1016.2 |
| 20260902154909 | 91 | 217 | 7.0 | 11.0 | 0.00 | 0.00 | 0.00 | 63 | 1016.0 |
| 20260902154404 | 91 | 213 | 7.0 | 14.0 | 0.00 | 0.00 | 0.00 | 63 | 1016.3 |
| 20260902153903 | 90 | 178 | 5.0 | 9.0 | 0.00 | 0.00 | 0.00 | 64 | 1016.3 |
| 20260902153402 | 90 | 142 | 7.0 | 15.0 | 0.00 | 0.00 | 0.00 | 65 | 1016.3 |
| 20260902152853 | 89 | 158 | 6.0 | 13.0 | 0.00 | 0.00 | 0.00 | 66 | 1016.5 |
| 20260902152348 | 89 | 166 | 3.0 | 14.0 | 0.00 | 0.00 | 0.00 | 67 | 1016.3 |
| 20260902151843 | 89 | 186 | 5.0 | 9.0 | 0.00 | 0.00 | 0.00 | 68 | 1016.5 |
| 20260902151339 | 89 | 179 | 6.0 | 10.0 | 0.00 | 0.00 | 0.00 | 68 | 1016.3 |
| 20260902150833 | 89 | 188 | 8.0 | 13.0 | 0.00 | 0.00 | 0.00 | 68 | 1016.1 |
| 20260902150329 | 89 | 166 | 7.0 | 14.0 | 0.00 | 0.00 | 0.00 | 69 | 1016.4 |
| 20260902145829 | 88 | 220 | 4.0 | 10.0 | 0.00 | 0.00 | 0.00 | 70 | 1016.4 |
| 20260902145325 | 88 | 188 | 5.0 | 10.0 | 0.00 | 0.00 | 0.00 | 71 | 1016.1 |
| 20260902144819 | 87 | 169 | 8.0 | 9.0 | 0.00 | 0.00 | 0.00 | 73 | 1016.3 |
| 20260902144315 | 87 | 169 | 4.0 | 11.0 | 0.00 | 0.00 | 0.00 | 73 | 1016.1 |
| 20260902143810 | 87 | 172 | 6.0 | 10.0 | 0.00 | 0.00 | 0.00 | 74 | 1016.2 |
| 20260902143304 | 87 | 164 | 7.0 | 12.0 | 0.00 | 0.00 | 0.00 | 74 | 1016.2 |
| 20260902142800 | 86 | 160 | 5.0 | 10.0 | 0.00 | 0.00 | 0.00 | 77 | 1016.2 |
| 20260902142251 | 86 | 164 | 7.0 | 10.0 | 0.00 | 0.00 | 0.00 | 77 | 1016.1 |
| 20260902141751 | 85 | 160 | 7.0 | 11.0 | 0.00 | 0.00 | 0.00 | 78 | 1016.4 |
| 20260902141246 | 85 | 196 | 5.0 | 10.0 | 0.00 | 0.00 | 0.00 | 78 | 1016.2 |
| 20260902140740 | 85 | 178 | 6.0 | 10.0 | 0.00 | 0.00 | 0.00 | 78 | 1016.2 |
| 20260902140235 | 85 | 183 | 3.0 | 9.0 | 0.00 | 0.00 | 0.00 | 80 | 1016.4 |
| 20260902135734 | 85 | 194 | 7.0 | 10.0 | 0.00 | 0.00 | 0.00 | 80 | 1016.4 |
| 20260902135231 | 84 | 159 | 4.0 | 10.0 | 0.00 | 0.00 | 0.00 | 81 | 1016.2 |
| 20260902134730 | 84 | 183 | 3.0 | 8.0 | 0.00 | 0.00 | 0.00 | 81 | 1016.4 |
| 20260902134225 | 84 | 204 | 6.0 | 8.0 | 0.00 | 0.00 | 0.00 | 81 | 1016.3 |
| 20260902133721 | 84 | 175 | 3.0 | 6.0 | 0.00 | 0.00 | 0.00 | 82 | 1016.0 |
| 20260902133219 | 84 | 215 | 4.0 | 5.0 | 0.00 | 0.00 | 0.00 | 83 | 1016.2 |
| 20260902132715 | 84 | 201 | 4.0 | 6.0 | 0.00 | 0.00 | 0.00 | 83 | 1016.2 |
| 20260902132210 | 83 | 190 | 4.0 | 7.0 | 0.00 | 0.00 | 0.00 | 83 | 1016.1 |
| 20260902131706 | 83 | 169 | 4.0 | 7.0 | 0.00 | 0.00 | 0.00 | 84 | 1016.1 |
| 20260902131202 | 83 | 173 | 5.0 | 10.0 | 0.00 | 0.00 | 0.00 | 84 | 1016.0 |
| 20260902130658 | 83 | 176 | 3.0 | 6.0 | 0.00 | 0.00 | 0.00 | 84 | 1015.8 |
| 20260902130153 | 82 | 211 | 3.0 | 7.0 | 0.00 | 0.00 | 0.00 | 84 | 1015.7 |
| 20260902125648 | 82 | 176 | 3.0 | 8.0 | 0.00 | 0.00 | 0.00 | 85 | 1015.8 |
| 20260902125144 | 82 | 159 | 3.0 | 5.0 | 0.00 | 0.00 | 0.00 | 85 | 1015.9 |
| 20260902124640 | 82 | 201 | 4.0 | 5.0 | 0.00 | 0.00 | 0.00 | 85 | 1015.7 |
| 20260902124140 | 82 | 202 | 2.0 | 5.0 | 0.00 | 0.00 | 0.00 | 85 | 1015.5 |
| 20260902123636 | 82 | 190 | 4.0 | 6.0 | 0.00 | 0.00 | 0.00 | 85 | 1015.5 |
| 20260902123136 | 82 | 153 | 3.0 | 7.0 | 0.00 | 0.00 | 0.00 | 85 | 1015.2 |
| 20260902122630 | 82 | 176 | 3.0 | 6.0 | 0.00 | 0.00 | 0.00 | 85 | 1015.3 |
| 20260902122126 | 82 | 179 | 4.0 | 6.0 | 0.00 | 0.00 | 0.00 | 85 | 1015.5 |
| 20260902121621 | 82 | 184 | 5.0 | 5.0 | 0.00 | 0.00 | 0.00 | 85 | 1015.5 |
| 20260902121116 | 82 | 163 | 3.0 | 7.0 | 0.00 | 0.00 | 0.00 | 85 | 1015.6 |
| 20260902120612 | 82 | 209 | 3.0 | 4.0 | 0.00 | 0.00 | 0.00 | 85 | 1015.5 |
| 20260902120109 | 82 | 192 | 3.0 | 5.0 | 0.00 | 0.00 | 0.00 | 85 | 1015.7 |
| 20260902115603 | 82 | 169 | 3.0 | 6.0 | 0.00 | 0.00 | 0.00 | 85 | 1015.5 |
| 20260902115059 | 82 | 178 | 4.0 | 6.0 | 0.00 | 0.00 | 0.00 | 84 | 1015.6 |
| 20260902114555 | 82 | 182 | 4.0 | 6.0 | 0.00 | 0.00 | 0.00 | 84 | 1015.5 |
| 20260902114054 | 82 | 178 | 3.0 | 6.0 | 0.00 | 0.00 | 0.00 | 84 | 1015.5 |
| 20260902113550 | 82 | 168 | 3.0 | 6.0 | 0.00 | 0.00 | 0.00 | 84 | 1015.4 |
| 20260902113044 | 82 | 174 | 3.0 | 4.0 | 0.00 | 0.00 | 0.00 | 84 | 1015.4 |
| 20260902112535 | 82 | 188 | 4.0 | 7.0 | 0.00 | 0.00 | 0.00 | 84 | 1015.5 |
| 20260902112031 | 82 | 209 | 4.0 | 6.0 | 0.00 | 0.00 | 0.00 | 84 | 1015.4 |
| 20260902111527 | 82 | 177 | 4.0 | 6.0 | 0.00 | 0.00 | 0.00 | 83 | 1015.4 |
| 20260902111022 | 82 | 181 | 4.0 | 6.0 | 0.00 | 0.00 | 0.00 | 83 | 1015.5 |
| 20260902110519 | 82 | 181 | 4.0 | 8.0 | 0.00 | 0.00 | 0.00 | 83 | 1015.3 |
| 20260902110014 | 82 | 175 | 5.0 | 7.0 | 0.00 | 0.00 | 0.00 | 83 | 1015.2 |
| 20260902105508 | 82 | 173 | 2.0 | 5.0 | 0.00 | 0.00 | 0.00 | 83 | 1015.2 |
| 20260902105007 | 82 | 189 | 4.0 | 6.0 | 0.00 | 0.00 | 0.00 | 83 | 1015.1 |
| 20260902104503 | 82 | 187 | 4.0 | 7.0 | 0.00 | 0.00 | 0.00 | 83 | 1015.3 |
| 20260902103958 | 83 | 177 | 4.0 | 6.0 | 0.00 | 0.00 | 0.00 | 82 | 1015.4 |
| 20260902103454 | 83 | 149 | 4.0 | 7.0 | 0.00 | 0.00 | 0.00 | 82 | 1015.2 |
| 20260902102948 | 83 | 177 | 2.0 | 5.0 | 0.00 | 0.00 | 0.00 | 82 | 1015.2 |
| 20260902102446 | 83 | 193 | 5.0 | 9.0 | 0.00 | 0.00 | 0.00 | 82 | 1015.3 |
| 20260902101942 | 83 | 188 | 7.0 | 13.0 | 0.00 | 0.00 | 0.00 | 82 | 1015.3 |
| 20260902101442 | 83 | 160 | 5.0 | 7.0 | 0.00 | 0.00 | 0.00 | 82 | 1015.3 |